Terminal Aerodrome Forecast
Issued by NWS

Home | Current Version | Previous Version | Text Only | Print | Product List | Glossary On
Versions: 1 2 3 4 5 6 7 8 9 10 11 12 13 14 15 16 17 18 19 20 21 22
000
FTUS41 KCAR 020400 AAA
TAFPQI
TAF AMD
KPQI 020420Z 0204/0224 00000KT P6SM SCT001
      TEMPO 0204/0208 3SM BR VV001
     FM020900 00000KT 1SM BR SCT002
     FM021200 VRB03KT P6SM FEW250
      AMD LTD TO CLD VIS AND WIND=

USA.gov is the U.S. government's official web portal to all federal, state and local government web resources and services.